When you browse on this site, cookies collect data to enhance your experience and personalize the content and advertising you see.
Visit our Privacy Policy to learn more. By continuing to use the site, you agree to this use of cookies and data.
  • In Hungary
  • List of Countries
  • For 7 days
  • Water Temperature
  • Satellite Maps
  • Weather Map
  • News
  • Weather Widgets
  • user-avatar
    Login

    Hourly Weather Río Gallegos

    Today, 20 April, Saturday

    Time Temperature Precipitation Wind Pressure Humidity
    00:00 +8°C° 0 mm 11 mps 757 mmHg 74%
    01:00 +8°C° 0 mm 12 mps 757 mmHg 73%
    02:00 +8°C° 0 mm 12 mps 757 mmHg 73%
    03:00 +8°C° 0 mm 13 mps 757 mmHg 73%
    04:00 +8°C° 0 mm 13 mps 757 mmHg 72%
    05:00 +8°C° 0 mm 13 mps 757 mmHg 72%
    06:00 +7°C° 0 mm 13 mps 757 mmHg 71%
    07:00 +7°C° 0 mm 13 mps 757 mmHg 71%
    08:00 +8°C° 0 mm 14 mps 757 mmHg 68%
    09:00 +9°C° 0 mm 14 mps 757 mmHg 65%
    10:00 +10°C° 0 mm 14 mps 757 mmHg 62%
    11:00 +12°C° 0 mm 14 mps 758 mmHg 59%
    12:00 +13°C° 0 mm 14 mps 758 mmHg 57%
    13:00 +13°C° 0 mm 14 mps 758 mmHg 54%
    14:00 +13°C° 0 mm 13 mps 758 mmHg 56%
    15:00 +12°C° 0 mm 12 mps 758 mmHg 58%
    16:00 +12°C° 0 mm 11 mps 759 mmHg 60%
    17:00 +11°C° 0 mm 10 mps 759 mmHg 64%
    18:00 +9°C° 0 mm 10 mps 760 mmHg 68%
    19:00 +8°C° 0 mm 9 mps 760 mmHg 72%
    20:00 +8°C° 0 mm 9 mps 760 mmHg 74%
    21:00 +8°C° 0 mm 9 mps 760 mmHg 75%
    22:00 +7°C° 0 mm 9 mps 760 mmHg 77%
    23:00 +7°C° 0 mm 8 mps 760 mmHg 78%

    Tomorrow, 21 April, Sunday

    Time Temperature Precipitation Wind Pressure Humidity
    00:00 +7°C° 0 mm 8 mps 760 mmHg 79%
    01:00 +7°C° 0 mm 8 mps 761 mmHg 80%
    02:00 +7°C° 0 mm 8 mps 760 mmHg 79%
    03:00 +9°C° 0 mm 8 mps 760 mmHg 78%
    04:00 +8°C° 0 mm 9 mps 760 mmHg 77%
    05:00 +9°C° 0 mm 8 mps 760 mmHg 78%
    06:00 +7°C° 0 mm 8 mps 760 mmHg 79%
    07:00 +8°C° 0 mm 7 mps 760 mmHg 80%
    08:00 +9°C° 0 mm 8 mps 760 mmHg 74%
    09:00 +8°C° 0 mm 9 mps 760 mmHg 68%
    10:00 +9°C° 0 mm 10 mps 761 mmHg 62%
    11:00 +11°C° 0 mm 10 mps 760 mmHg 59%
    12:00 +12°C° 0 mm 9 mps 760 mmHg 56%
    13:00 +12°C° 0 mm 9 mps 760 mmHg 52%
    14:00 +12°C° 0 mm 7 mps 760 mmHg 55%
    15:00 +12°C° 0 mm 5 mps 760 mmHg 57%
    16:00 +12°C° 0 mm 4 mps 760 mmHg 60%
    17:00 +11°C° 0 mm 3 mps 760 mmHg 64%
    18:00 +10°C° 0 mm 2 mps 760 mmHg 69%
    19:00 +9°C° 0 mm 2 mps 760 mmHg 73%
    20:00 +9°C° 0 mm 2 mps 760 mmHg 75%
    21:00 +8°C° 0 mm 2 mps 760 mmHg 76%
    22:00 +8°C° 0 mm 2 mps 760 mmHg 78%
    23:00 +8°C° 0 mm 2 mps 760 mmHg 78%

    Day after tomorrow, 22 April, Monday

    Time Temperature Precipitation Wind Pressure Humidity
    00:00 +7°C° 0 mm 2 mps 759 mmHg 79%
    01:00 +7°C° 0 mm 2 mps 759 mmHg 79%
    02:00 +7°C° 0 mm 2 mps 759 mmHg 79%
    03:00 +7°C° 0 mm 2 mps 758 mmHg 78%
    04:00 +7°C° 0 mm 3 mps 758 mmHg 78%
    05:00 +5°C° 0 mm 3 mps 758 mmHg 80%
    06:00 +5°C° 0 mm 3 mps 758 mmHg 82%
    07:00 +5°C° 0 mm 3 mps 758 mmHg 84%
    08:00 +6°C° 0.1 mm 4 mps 759 mmHg 81%
    09:00 +7°C° 0.1 mm 4 mps 759 mmHg 77%
    10:00 +7°C° 0.1 mm 5 mps 759 mmHg 73%
    11:00 +7°C° 0.1 mm 8 mps 759 mmHg 66%
    12:00 +9°C° 0.1 mm 10 mps 759 mmHg 59%
    13:00 +10°C° 0.1 mm 13 mps 759 mmHg 53%
    14:00 +9°C° 0 mm 12 mps 760 mmHg 54%
    15:00 +8°C° 0 mm 11 mps 760 mmHg 56%
    16:00 +8°C° 0 mm 10 mps 760 mmHg 58%
    17:00 +7°C° 0 mm 9 mps 761 mmHg 61%
    18:00 +6°C° 0 mm 8 mps 762 mmHg 65%
    19:00 +5°C° 0 mm 7 mps 762 mmHg 68%
    20:00 +5°C° 0 mm 6 mps 763 mmHg 70%
    21:00 +4°C° 0 mm 6 mps 763 mmHg 71%
    22:00 +4°C° 0 mm 6 mps 763 mmHg 72%
    23:00 +4°C° 0 mm 6 mps 764 mmHg 73%

    23 April, Tuesday

    Time Temperature Precipitation Wind Pressure Humidity
    00:00 +3°C° 0 mm 5 mps 764 mmHg 74%
    01:00 +3°C° 0 mm 5 mps 764 mmHg 75%
    02:00 +4°C° 0 mm 4 mps 764 mmHg 76%
    03:00 +4°C° 0 mm 4 mps 764 mmHg 77%
    04:00 +3°C° 0 mm 3 mps 764 mmHg 78%
    05:00 +3°C° 0 mm 3 mps 765 mmHg 78%
    06:00 +3°C° 0 mm 3 mps 765 mmHg 78%
    07:00 +3°C° 0 mm 4 mps 765 mmHg 77%
    08:00 +5°C° 0 mm 4 mps 765 mmHg 71%
    09:00 +6°C° 0 mm 4 mps 765 mmHg 65%
    10:00 +8°C° 0 mm 5 mps 765 mmHg 59%
    11:00 +9°C° 0 mm 5 mps 764 mmHg 57%
    12:00 +10°C° 0 mm 5 mps 764 mmHg 55%
    13:00 +12°C° 0 mm 5 mps 764 mmHg 54%
    14:00 +12°C° 0 mm 5 mps 763 mmHg 56%
    15:00 +10°C° 0 mm 6 mps 763 mmHg 59%
    16:00 +10°C° 0 mm 6 mps 762 mmHg 62%
    17:00 +9°C° 0 mm 6 mps 762 mmHg 65%
    18:00 +9°C° 0 mm 6 mps 762 mmHg 68%
    19:00 +8°C° 0 mm 6 mps 762 mmHg 71%
    20:00 +8°C° 0 mm 6 mps 762 mmHg 71%
    21:00 +8°C° 0 mm 6 mps 762 mmHg 72%
    22:00 +8°C° 0 mm 6 mps 761 mmHg 72%
    23:00 +8°C° 0 mm 6 mps 761 mmHg 71%

    24 April, Wednesday

    Time Temperature Precipitation Wind Pressure Humidity
    00:00 +7°C° 0 mm 5 mps 761 mmHg 71%
    01:00 +7°C° 0 mm 5 mps 761 mmHg 70%
    02:00 +7°C° 0 mm 4 mps 761 mmHg 69%
    03:00 +7°C° 0 mm 4 mps 761 mmHg 69%
    04:00 +7°C° 0 mm 3 mps 761 mmHg 69%
    05:00 +7°C° 0 mm 3 mps 761 mmHg 66%
    06:00 +7°C° 0 mm 2 mps 761 mmHg 64%
    07:00 +7°C° 0 mm 2 mps 762 mmHg 61%
    08:00 +8°C° 0 mm 2 mps 762 mmHg 55%
    09:00 +10°C° 0 mm 2 mps 762 mmHg 49%
    10:00 +12°C° 0 mm 2 mps 762 mmHg 42%
    11:00 +13°C° 0 mm 2 mps 762 mmHg 40%
    12:00 +13°C° 0 mm 1 mps 762 mmHg 37%
    13:00 +14°C° 0 mm 1 mps 762 mmHg 34%
    14:00 +13°C° 0 mm 1 mps 762 mmHg 38%
    15:00 +13°C° 0 mm 1 mps 762 mmHg 42%
    16:00 +12°C° 0 mm 1 mps 762 mmHg 46%
    17:00 +11°C° 0 mm 1 mps 762 mmHg 46%
    18:00 +11°C° 0 mm 1 mps 762 mmHg 46%
    19:00 +10°C° 0 mm 1 mps 763 mmHg 45%
    20:00 +9°C° 0 mm 2 mps 763 mmHg 46%
    21:00 +9°C° 0 mm 2 mps 763 mmHg 46%
    22:00 +9°C° 0 mm 2 mps 762 mmHg 47%
    23:00 +8°C° 0 mm 2 mps 762 mmHg 48%

    25 April, Thursday

    Time Temperature Precipitation Wind Pressure Humidity
    00:00 +8°C° 0 mm 2 mps 762 mmHg 50%
    01:00 +8°C° 0 mm 3 mps 762 mmHg 51%
    02:00 +7°C° 0 mm 2 mps 761 mmHg 56%
    03:00 +7°C° 0 mm 2 mps 761 mmHg 60%
    04:00 +7°C° 0 mm 2 mps 761 mmHg 64%
    05:00 +7°C° 0 mm 2 mps 760 mmHg 67%
    06:00 +7°C° 0 mm 2 mps 760 mmHg 71%
    07:00 +6°C° 0 mm 2 mps 760 mmHg 74%
    08:00 +8°C° 0 mm 2 mps 760 mmHg 69%
    09:00 +9°C° 0 mm 2 mps 759 mmHg 63%
    10:00 +10°C° 0 mm 2 mps 759 mmHg 57%
    11:00 +12°C° 0 mm 2 mps 758 mmHg 54%
    12:00 +13°C° 0 mm 2 mps 758 mmHg 50%
    13:00 +13°C° 0 mm 1 mps 757 mmHg 46%
    14:00 +13°C° 0 mm 1 mps 757 mmHg 50%
    15:00 +12°C° 0 mm 1 mps 756 mmHg 54%
    16:00 +12°C° 0 mm 1 mps 756 mmHg 58%
    17:00 +11°C° 0 mm 1 mps 756 mmHg 59%
    18:00 +11°C° 0 mm 1 mps 756 mmHg 60%
    19:00 +10°C° 0 mm 1 mps 756 mmHg 61%
    20:00 +10°C° 0 mm 1 mps 756 mmHg 59%
    21:00 +10°C° 0 mm 1 mps 755 mmHg 56%
    22:00 +10°C° 0 mm 2 mps 755 mmHg 54%
    23:00 +10°C° 0.1 mm 2 mps 756 mmHg 55%
    Show more